Rugby, ND

7:46 AM CST on December 12, 2019 (GMT -0600)
Rugby Municipal

Weather History for KRUG - October, 2019

Change the Weather History Date:

Monday, October 14, 2019

  Actual Average Record
Temperature  
Mean Temperature 34 °F -  
Max Temperature 41 °F 55 °F 84 °F (1988)
Min Temperature 28 °F 32 °F 10 °F (1992)
Degree Days  
Heating Degree Days 30    
Moisture  
Dew Point 32 °F    
Average Humidity 88    
Maximum Humidity 100    
Minimum Humidity 65    
Precipitation  
Precipitation 0.00 in - - ()
Sea Level Pressure  
Sea Level Pressure 29.83 in    
Wind  
Wind Speed 5 mph (SSE)    
Max Wind Speed 16 mph    
Max Gust Speed 16 mph    
Visibility 10 miles    
Events      
Averages and records for this station are not official NWS values.
T = Trace of Precipitation, MM = Missing Value Source: NWS Daily Summary

Daily Weather History Graph

Daily Weather History Graph

Search for Another Location

Airport or City:

Astronomy

Oct. 14, 2019 Rise Set
Actual Time 7:58 AM CDT 6:53 PM CDT
Civil Twilight 7:26 AM CDT 7:24 PM CDT
Nautical Twilight 6:50 AM CDT 8:00 PM CDT
Astronomical Twilight 6:14 AM CDT 8:37 PM CDT
Moon 7:43 PM CDT (10/14) 8:30 AM CDT (10/14)
Length of Visible Light 11h 58m
Length of Day
10h 55m
Full, 99% of the Moon is Illuminated
Oct 14
Full
Oct 21
Last Quarter
Oct 27
New
Nov 4
First Quarter
Nov 12
Full

Hourly Weather History & Observations

Time (CDT) Temp. Windchill Dew Point Humidity Pressure Visibility Wind Dir Wind Speed Gust Speed Precip Events Conditions
12:15 AM 32.0 °F 26.4 °F 32.0 °F 100% 29.88 in 10.0 mi SSW 5.8 mph - N/A   Overcast
12:35 AM 32.0 °F 26.4 °F 32.0 °F 100% 29.88 in 10.0 mi SSW 5.8 mph - N/A   Overcast
12:55 AM 32.0 °F 25.6 °F 32.0 °F 100% 29.87 in 10.0 mi SSW 6.9 mph - N/A   Overcast
1:15 AM 33.8 °F 29.6 °F 32.0 °F 93% 29.87 in 10.0 mi South 4.6 mph - N/A   Overcast
1:35 AM 33.8 °F 27.7 °F 32.0 °F 93% 29.87 in 10.0 mi SSW 6.9 mph - N/A   Overcast
1:55 AM 33.8 °F 26.4 °F 32.0 °F 93% 29.87 in 10.0 mi SSW 9.2 mph - N/A   Overcast
2:15 AM 33.8 °F 27.0 °F 32.0 °F 93% 29.87 in 10.0 mi SW 8.1 mph - N/A   Overcast
2:35 AM 33.8 °F 27.0 °F 32.0 °F 93% 29.87 in 10.0 mi SSW 8.1 mph - N/A   Overcast
2:55 AM 33.8 °F 28.6 °F 32.0 °F 93% 29.87 in 10.0 mi SSW 5.8 mph - N/A   Overcast
3:15 AM 33.8 °F 30.8 °F 32.0 °F 93% 29.87 in 10.0 mi South 3.5 mph - N/A   Overcast
3:35 AM 33.8 °F - 32.0 °F 93% 29.87 in 10.0 mi Calm Calm - N/A   Overcast
3:55 AM 33.8 °F 29.6 °F 32.0 °F 93% 29.87 in 10.0 mi SSW 4.6 mph - N/A   Overcast
4:15 AM 33.8 °F 28.6 °F 32.0 °F 93% 29.86 in 10.0 mi SSW 5.8 mph - N/A   Overcast
4:35 AM 33.8 °F - 32.0 °F 93% 29.85 in 10.0 mi Calm Calm - N/A   Overcast
4:55 AM 33.8 °F 29.6 °F 32.0 °F 93% 29.85 in 10.0 mi SSW 4.6 mph - N/A   Overcast
5:15 AM 33.8 °F - 32.0 °F 93% 29.85 in 10.0 mi Calm Calm - N/A   Overcast
5:35 AM 32.0 °F - 32.0 °F 100% 29.84 in 10.0 mi Calm Calm - N/A   Scattered Clouds
5:55 AM 32.0 °F - 32.0 °F 100% 29.84 in 10.0 mi Calm Calm - N/A   Clear
6:15 AM 30.2 °F - 30.2 °F 100% 29.84 in 10.0 mi Calm Calm - N/A   Clear
6:35 AM 28.4 °F - 28.4 °F 100% 29.84 in 10.0 mi Calm Calm - N/A   Clear
6:55 AM 28.4 °F - 28.4 °F 100% 29.85 in 10.0 mi Calm Calm - N/A   Clear
7:15 AM 28.4 °F - 28.4 °F 100% 29.84 in 10.0 mi Calm Calm - N/A   Clear
7:35 AM 28.4 °F - 28.4 °F 100% 29.84 in 10.0 mi Calm Calm - N/A   Clear
7:55 AM 28.4 °F 24.6 °F 28.4 °F 100% 29.84 in 9.0 mi SE 3.5 mph - N/A   Clear
8:15 AM 28.4 °F 24.6 °F 28.4 °F 100% 29.84 in 9.0 mi SE 3.5 mph - N/A   Clear
8:35 AM 28.4 °F 23.3 °F 28.4 °F 100% 29.85 in 9.0 mi SSE 4.6 mph - N/A   Clear
8:55 AM 28.4 °F 24.6 °F 28.4 °F 100% 29.85 in 10.0 mi SE 3.5 mph - N/A   Clear
9:15 AM 30.2 °F 26.7 °F 30.2 °F 100% 29.84 in 10.0 mi SE 3.5 mph - N/A   Clear
9:35 AM 30.2 °F 26.7 °F 30.2 °F 100% 29.85 in 10.0 mi SE 3.5 mph - N/A   Clear
9:55 AM 32.0 °F 26.4 °F 30.2 °F 93% 29.84 in 10.0 mi SE 5.8 mph - N/A   Clear
10:15 AM 32.0 °F 27.5 °F 30.2 °F 93% 29.84 in 10.0 mi SE 4.6 mph - N/A   Clear
10:35 AM 33.8 °F 29.6 °F 30.2 °F 87% 29.84 in 10.0 mi SE 4.6 mph - N/A   Clear
10:55 AM 33.8 °F 29.6 °F 30.2 °F 87% 29.84 in 10.0 mi ESE 4.6 mph - N/A   Clear
11:15 AM 35.6 °F 31.7 °F 30.2 °F 81% 29.84 in 10.0 mi ESE 4.6 mph - N/A   Clear
11:35 AM 37.4 °F 33.8 °F 32.0 °F 81% 29.83 in 10.0 mi ESE 4.6 mph - N/A   Clear
11:55 AM 37.4 °F 32.8 °F 32.0 °F 81% 29.83 in 10.0 mi ESE 5.8 mph - N/A   Clear
12:15 PM 39.2 °F - 32.0 °F 75% 29.83 in 10.0 mi Calm Calm - N/A   Clear
12:35 PM 39.2 °F 35.9 °F 32.0 °F 75% 29.84 in 10.0 mi South 4.6 mph - N/A   Clear
12:55 PM 39.2 °F 35.0 °F 32.0 °F 75% 29.83 in 10.0 mi South 5.8 mph - N/A   Clear
1:15 PM 39.2 °F 34.2 °F 32.0 °F 75% 29.83 in 10.0 mi SSE 6.9 mph - N/A   Clear
1:35 PM 39.2 °F 35.0 °F 32.0 °F 75% 29.82 in 10.0 mi SSE 5.8 mph - N/A   Clear
1:55 PM 41.0 °F 36.4 °F 30.2 °F 65% 29.82 in 10.0 mi SE 6.9 mph - N/A   Clear
2:15 PM 41.0 °F 36.4 °F 30.2 °F 65% 29.81 in 10.0 mi SE 6.9 mph - N/A   Clear
2:35 PM 41.0 °F 37.1 °F 32.0 °F 70% 29.80 in 10.0 mi ESE 5.8 mph - N/A   Clear
2:55 PM 41.0 °F 36.4 °F 33.8 °F 76% 29.80 in 10.0 mi ESE 6.9 mph - N/A   Clear
3:15 PM 41.0 °F 35.8 °F 32.0 °F 70% 29.80 in 10.0 mi ESE 8.1 mph - N/A   Clear
3:35 PM 41.0 °F 37.1 °F 32.0 °F 70% 29.80 in 10.0 mi ESE 5.8 mph - N/A   Clear
3:55 PM 41.0 °F 34.7 °F 32.0 °F 70% 29.79 in 10.0 mi SE 10.4 mph - N/A   Clear
4:15 PM 41.0 °F 35.8 °F 33.8 °F 76% 29.79 in 10.0 mi ESE 8.1 mph - N/A   Clear
4:35 PM 41.0 °F 35.2 °F 32.0 °F 70% 29.79 in 10.0 mi ESE 9.2 mph - N/A   Clear
4:55 PM 41.0 °F 36.4 °F 32.0 °F 70% 29.80 in 10.0 mi ESE 6.9 mph - N/A   Clear
5:15 PM 39.2 °F 33.6 °F 33.8 °F 81% 29.80 in 10.0 mi ESE 8.1 mph - N/A   Clear
5:35 PM 39.2 °F 34.2 °F 33.8 °F 81% 29.80 in 10.0 mi ESE 6.9 mph - N/A   Clear
5:55 PM 39.2 °F 33.6 °F 33.8 °F 81% 29.81 in 10.0 mi SE 8.1 mph - N/A   Partly Cloudy
6:15 PM 39.2 °F 34.2 °F 33.8 °F 81% 29.81 in 10.0 mi SE 6.9 mph - N/A   Mostly Cloudy
6:35 PM 37.4 °F 32.1 °F 33.8 °F 87% 29.82 in 10.0 mi SE 6.9 mph - N/A   Mostly Cloudy
6:55 PM 37.4 °F 31.4 °F 33.8 °F 87% 29.82 in 10.0 mi SE 8.1 mph - N/A   Partly Cloudy
7:15 PM 37.4 °F 30.8 °F 33.8 °F 87% 29.82 in 10.0 mi ESE 9.2 mph - N/A   Partly Cloudy
7:35 PM 35.6 °F 29.2 °F 33.8 °F 93% 29.82 in 10.0 mi SE 8.1 mph - N/A   Mostly Cloudy
7:55 PM 37.4 °F 31.4 °F 33.8 °F 87% 29.82 in 10.0 mi SE 8.1 mph - N/A   Overcast
8:15 PM 37.4 °F 31.4 °F 33.8 °F 87% 29.83 in 10.0 mi SSE 8.1 mph - N/A   Overcast
8:35 PM 39.2 °F 31.2 °F 32.0 °F 75% 29.81 in 10.0 mi SSE 13.8 mph - N/A   Overcast
8:55 PM 39.2 °F 31.2 °F 32.0 °F 75% 29.79 in 10.0 mi SE 13.8 mph - N/A   Overcast
9:15 PM 37.4 °F 28.2 °F 33.8 °F 87% 29.78 in 10.0 mi SE 16.1 mph - N/A   Mostly Cloudy
9:35 PM 37.4 °F 29.8 °F 33.8 °F 87% 29.78 in 10.0 mi SE 11.5 mph - N/A   Overcast
9:55 PM 37.4 °F 30.3 °F 33.8 °F 87% 29.79 in 10.0 mi South 10.4 mph 16.1 mph N/A   Overcast
10:15 PM 37.4 °F 32.8 °F 35.6 °F 93% 29.80 in 10.0 mi South 5.8 mph - N/A   Overcast
10:35 PM 37.4 °F 32.1 °F 35.6 °F 93% 29.80 in 10.0 mi South 6.9 mph - N/A   Overcast
10:55 PM 37.4 °F 32.1 °F 35.6 °F 93% 29.80 in 10.0 mi SSE 6.9 mph - N/A   Overcast
11:15 PM 37.4 °F 30.3 °F 35.6 °F 93% 29.80 in 10.0 mi SSE 10.4 mph - N/A   Overcast
11:35 PM 35.6 °F 29.9 °F 35.6 °F 100% 29.80 in 10.0 mi SE 6.9 mph - N/A   Overcast
11:55 PM 35.6 °F 32.8 °F 35.6 °F 100% 29.81 in 10.0 mi SE 3.5 mph - N/A   Mostly Cloudy